THOR ABLESTAR DEB, 13511

Orbit data source: Space-Track

THOR ABLESTAR DEB, 13511 is space debris in LEO originally from a launch on Thu, 29 Jun 1961 UTC launched from the Air Force Eastern Test Range (AFETR). Debris objects in space refer to the collection of defunct objects orbiting the Earth. Examples of debris include non-operational satellites, rocket bodies, and fragments generated from explosions, collisions, or faulty payload assembly.

Loading next visibility...
Identifier
13511, 1961-015KU
Orbit
LEO
Country
Flag of USUS
Related business
Manufacturer
Unknown
Mission
Spacecraft
Bus & Motor
Unknown
Mass
Unknown
Launch date (UTC)
1961-06-29 (65 years ago)
Launch vehicle
Unknown
Launch site
Air Force Eastern Test Range (AFETR)
Object type
Payload
Rocket body
Debris
Shape & HBR
Unknown shape, 0.1 m
Radar Cross Section
Medium (>0.1 m² and <1 m²)

Expand to show TLE details & history
Last TLE update: 9 hours ago

TLE from 9 hours ago
0 THOR ABLESTAR DEB
1 13511U 61015KU  26221.74072624  .00000088  00000-0  18781-3 0  9993
2 13511  65.8411  90.9903 0115629 151.8338 272.5217 13.67856685298427
Epoch: 2026-08-09T17:46Z
TLE epoch observation values (Epoch: 2026-08-09T17:46:38.747Z)
Latitude
54.52632°
Longitude
-95.13383°
Altitude
1,012.585 km
Speed
7.352 km/s
True Right ascension
08h 39m 02s
True Declination
54° 22' 09"
Sunlit
Object was in daylight at epoch
Visualization orbit readout
Latitude
Unknown
Longitude
Unknown
Altitude
Unknown
Speed
Unknown
Apparent Right ascension
Unknown
Apparent Declination
Unknown
Sunlit
N/A
Visualization observer readout
Local Sidereal Time
16:36:19
Azimuth
Unknown
Elevation
Unknown
Doppler factor
Unknown
Orbital elements
Apogee altitude
1,091.177 km
Perigee altitude
920.417 km
Semi-major axis
7,383.934 km
Eccentricity
0.01156
Inclination
65.8411°
RAAN
90.9903°
Arg. of periapsis
151.8338°
True anomaly
271.19725°
Mean anomaly
272.5217°
Eccentric anomaly
271.85954°
Mean motion
3.42067 °/min
Orbital period
105.24 mins
BSTAR
0.00018781
Loading maneuver chart data...
Computing Atmospheric mass density...
Loading historical data...
Loading historical data...
Loading historical data...
Loading historical data...
Loading historical data...
Loading historical data...
Loading historical data...

Documentation

Showing up to 5 results
|